User: anonymous   Login
Location: Unspecified
(0.0000°N, 0.0000°E)
Time: 20:49:07
(UTC+00:00)
Language:

Explorer 7 - Orbit

View from above orbital plane
View from above orbital plane
View from above satellite
View from above satellite

Ground track
Ground track

The orbit data is extracted from the following two-line orbital elements,

1 00022U 59009A   16146.48130555  .00000348  00000-0  50506-4 0  9991
2 00022  50.2844 217.7180 0143784 354.8690   5.0775 14.93474431  3396
Epoch (UTC): 25 May 2016 11:33:04
Eccentricity: 0.0143784
inclination: 50.2844°
perigee height: 487 km
apogee height: 687 km
right ascension of ascending node: 217.7180°
argument of perigee: 354.8690°
revolutions per day: 14.93474431
mean anomaly at epoch: 5.0775°
orbit number at epoch: 339

The dashed part of the orbit path shows where the satellite is in the earth's shadow,  

DLR